Change the Weather History Date:

Monday, October 24, 2011

  Actual Average Record
Temperature  
Mean Temperature 54 °F -  
Max Temperature 63 °F 60 °F 84 °F (2001)
Min Temperature 45 °F 41 °F 32 °F (2008)
Degree Days  
Heating Degree Days 11    
Growing Degree Days 4 (Base 50)    
Moisture  
Dew Point 47 °F    
Average Humidity 77    
Maximum Humidity 93    
Minimum Humidity 58    
Precipitation  
Precipitation 0.00 in - - ()
Sea Level Pressure  
Sea Level Pressure 30.05 in    
Wind  
Wind Speed 3 mph (SSW)    
Max Wind Speed 12 mph    
Max Gust Speed -    
Visibility 9 miles    
Events Fog    
Averages and records for this station are not official NWS values.
T = Trace of Precipitation, MM = Missing Value Source: NWS Daily Summary

Daily Weather History Graph

Daily Weather History Graph

Search for Another Location

Airport or City:

Trip Planner

Search our weather history database for the weather conditions in past years. The results will help you decide how hot, cold, wet, or windy it might be!

Date:

Astronomy

Oct. 24, 2011 Rise Set
Actual Time 7:17 AM EDT 6:03 PM EDT
Civil Twilight 6:49 AM EDT 6:31 PM EDT
Nautical Twilight 6:17 AM EDT 7:03 PM EDT
Astronomical Twilight 5:45 AM EDT 7:34 PM EDT
Moon 4:31 AM EDT (10/24) 4:27 PM EDT (10/24)
Length of Visible Light 11h 41m
Length of Day
10h 45m
Waning Crescent, 7% of the Moon is Illuminated
Oct 24
Waning Crescent
Oct 26
New
Nov 2
First Quarter
Nov 10
Full
Nov 18
Last Quarter

Hourly Weather History & Observations

Time (EDT) Temp. Dew Point Humidity Pressure Visibility Wind Dir Wind Speed Gust Speed Precip Events Conditions
12:51 AM 48.2 °F 44.6 °F 87% 30.13 in 10.0 mi Calm Calm - N/A   Clear
1:51 AM 46.9 °F 44.1 °F 90% 30.13 in 10.0 mi Calm Calm - N/A   Clear
2:51 AM 45.0 °F 43.0 °F 93% 30.13 in 8.0 mi Calm Calm - N/A   Clear
3:51 AM 45.0 °F 43.0 °F 93% 30.12 in 8.0 mi Calm Calm - N/A   Clear
4:51 AM 45.0 °F 43.0 °F 93% 30.12 in 9.0 mi Calm Calm - N/A   Clear
5:51 AM 46.0 °F 42.1 °F 86% 30.11 in 10.0 mi Calm Calm - N/A   Clear
6:51 AM 45.0 °F 42.1 °F 90% 30.10 in 10.0 mi Calm Calm - N/A   Clear
7:51 AM 45.0 °F 42.1 °F 90% 30.11 in 8.0 mi Calm Calm - N/A   Clear
8:51 AM 50.0 °F 44.1 °F 80% 30.12 in 8.0 mi Calm Calm - N/A Fog Shallow Fog
9:51 AM 52.0 °F 46.0 °F 80% 30.11 in 8.0 mi SSW 4.6 mph - 0.00 in   Clear
10:51 AM 57.9 °F 48.0 °F 70% 30.10 in 6.0 mi South 5.8 mph - N/A   Haze
11:51 AM 60.1 °F 46.9 °F 62% 30.09 in 10.0 mi South 10.4 mph - N/A   Mostly Cloudy
12:51 PM 61.0 °F 46.0 °F 58% 30.06 in 10.0 mi South 11.5 mph - N/A   Overcast
1:51 PM 61.0 °F 48.0 °F 62% 30.03 in 10.0 mi SSW 6.9 mph - N/A   Mostly Cloudy
2:51 PM 61.0 °F 48.0 °F 62% 30.01 in 10.0 mi South 6.9 mph - N/A   Overcast
3:51 PM 63.0 °F 48.9 °F 60% 29.99 in 10.0 mi South 6.9 mph - N/A   Mostly Cloudy
4:51 PM 61.0 °F 48.9 °F 64% 29.98 in 10.0 mi South 8.1 mph - N/A   Partly Cloudy
5:51 PM 59.0 °F 48.9 °F 69% 29.97 in 10.0 mi South 6.9 mph - N/A   Mostly Cloudy
6:51 PM 59.0 °F 48.9 °F 69% 29.97 in 10.0 mi South 5.8 mph - N/A   Overcast
7:51 PM 57.0 °F 48.9 °F 74% 29.98 in 10.0 mi South 5.8 mph - N/A   Mostly Cloudy
8:51 PM 57.9 °F 50.0 °F 75% 29.97 in 10.0 mi South 4.6 mph - N/A   Overcast
9:51 PM 57.0 °F 50.0 °F 77% 29.97 in 10.0 mi SSW 6.9 mph - N/A   Overcast
10:51 PM 55.9 °F 50.0 °F 80% 29.96 in 10.0 mi SSW 4.6 mph - N/A   Scattered Clouds
11:51 PM 57.0 °F 51.1 °F 81% 29.96 in 10.0 mi West 3.5 mph - N/A   Mostly Cloudy